User: anonymous   Login
Location: Unspecified
(0.0000°N, 0.0000°E)
Time: 18:26:49
(UTC+01:00)
Language:

SJ-6B - Orbit

View from above orbital plane
View from above orbital plane
View from above satellite
View from above satellite

Ground track
Ground track

The orbit data is extracted from the following two-line orbital elements,

1 28415U 04035C   17321.14376749  .00000209  00000-0  18331-4 0  9998
2 28415  97.7325 350.9860 0051129 323.4392  36.3349 15.06359834721608
Epoch (UTC): 17 November 2017 03:27:01
Eccentricity: 0.0051129
inclination: 97.7325°
perigee height: 512 km
apogee height: 583 km
right ascension of ascending node: 350.9860°
argument of perigee: 323.4392°
revolutions per day: 15.06359834
mean anomaly at epoch: 36.3349°
orbit number at epoch: 72160

The dashed part of the orbit path shows where the satellite is in the earth's shadow,  

DLR